Temp
88 88 88 88 88 88 87 87 87 87 86 87 87 87 86 86 86 86 86 85 85 85 84 84 84 83 84 83 83 83 83 82 83 84 83 83 82 82 82 82 82 81
87 88 88 88 88 88 87 88 87 86 86 86 87 87 86 86 86 86 85 85 85 85 84 84 83 83 83 83 83 82 82 82 82 84 82 82 82 82 83 82 82 82
88 87 88 87 88 88 88 88 87 87 87 87 87 86 86 86 86 85 85 85 85 85 84 84 84 83 83 83 82 82 82 81 81 84 82 81 82 81 82 85 84 83
87 88 88 88 89 88 88 87 86 86 88 86 86 87 87 87 86 85 84 84 84 84 84 84 84 84 83 82 82 81 82 82 83 83 82 82 81 81 81 82 82 82
87 88 88 89 89 88 88 86 87 87 88 87 87 86 85 85 85 85 84 83 83 83 83 83 83 83 82 82 81 81 82 82 83 82 81 80 81 81 82 82 81 81
88 88 87 88 88 87 87 87 87 87 88 88 86 87 86 85 84 84 84 84 84 84 83 83 82 82 82 81 81 81 82 83 84 82 80 80 81 82 83 82 81 80
88 87 87 88 88 87 86 86 87 87 87 87 86 85 86 85 84 83 83 83 84 82 83 81 80 80 81 81 81 81 81 81 82 81 80 80 80 80 82 82 81 80
88 88 88 87 87 87 86 87 87 86 86 86 85 85 86 86 84 84 83 83 83 82 81 81 80 80 82 81 81 81 81 82 81 80 79 79 80 79 80 81 81 80
88 87 87 87 87 87 89 89 88 87 86 85 86 87 85 85 84 83 81 80 81 81 81 80 79 80 81 81 81 81 80 81 81 81 80 79 79 79 80 81 80 80
86 87 88 89 89 88 88 87 90 88 86 86 86 87 85 84 84 83 80 79 79 79 79 79 77 78 79 81 81 80 80 79 79 80 80 80 80 81 81 81 80 80
87 88 87 87 89 90 88 89 91 90 88 88 87 87 85 83 81 81 79 77 77 78 77 77 78 79 79 81 81 81 80 80 80 80 80 80 81 81 80 80 81 81
87 86 86 88 89 90 89 90 92 90 89 89 88 87 84 83 80 79 78 77 77 77 77 77 77 78 79 80 81 82 80 80 81 81 81 81 81 81 82 82 81 81
87 86 87 88 86 87 88 89 91 92 89 87 87 87 84 83 82 78 76 74 74 75 75 75 76 77 79 79 80 80 80 80 81 81 81 81 82 83 84 83 83 82
87 87 87 86 85 84 85 88 89 89 86 85 85 84 84 83 79 75 73 72 72 73 74 75 76 78 79 79 80 80 80 81 81 81 81 82 82 82 83 84 84 84
87 87 87 85 84 84 85 86 87 85 84 82 82 83 84 83 80 76 72 71 72 71 73 75 76 77 79 80 80 80 81 81 81 81 81 81 81 83 83 83 83 84
86 86 84 83 82 83 78 77 79 79 79 79 79 81 79 78 77 76 75 72 71 71 73 75 76 79 75 69 73 81 81 82 82 81 81 81 81 81 82 83 84 85
85 85 84 81 81 81 77 79 78 78 77 77 77 77 76 75 75 75 75 74 72 72 74 76 78 79 68 66 67 69 78 81 81 80 81 81 81 80 80 81 83 83
85 84 83 81 81 81 78 80 77 76 76 77 77 76 75 76 76 76 75 75 75 76 77 78 79 70 65 65 66 65 68 79 82 81 82 82 82 81 81 81 81 81
84 83 83 82 81 82 79 79 78 78 77 77 76 77 76 75 75 76 75 75 76 75 78 81 83 69 65 64 64 64 64 69 81 81 82 82 82 82 82 81 79 79
84 83 83 82 81 81 79 78 77 78 78 79 78 76 74 75 76 76 75 75 76 76 77 81 82 70 64 63 63 62 63 66 79 80 81 81 81 81 82 80 75 70
83 83 82 82 82 81 79 77 77 78 78 79 78 76 75 75 76 75 75 76 78 78 79 81 83 68 62 61 61 60 61 65 78 79 79 80 79 80 80 79 77 75
83 82 82 82 82 81 79 77 77 77 77 77 76 75 76 77 77 77 76 77 78 79 80 80 84 65 62 61 60 59 61 72 76 76 77 77 78 78 77 78 78 76
84 83 82 81 81 80 79 78 77 77 77 77 75 74 73 72 75 75 76 79 79 78 77 79 83 69 59 59 59 58 64 76 76 77 76 76 76 76 76 76 76 75
84 83 81 81 80 80 79 79 79 79 79 77 75 73 73 73 73 73 75 78 79 78 79 81 82 69 57 58 58 57 67 77 75 73 72 72 73 75 76 74 73 73
84 83 82 82 81 82 81 80 79 78 78 77 77 76 74 73 72 73 75 77 80 80 74 79 81 71 55 58 56 56 67 76 73 73 72 72 74 74 73 71 72 72
84 82 82 81 80 81 82 82 82 82 80 78 76 75 74 74 74 75 76 77 80 81 82 82 81 80 67 54 55 54 60 73 73 71 71 71 70 69 70 72 73 74
MSLP
1012.68 1012.88 1013.16 1013.40 1013.64 1013.84 1014.16 1014.52 1014.68 1014.92 1015.08 1015.12 1015.40 1015.52 1015.76 1015.92 1016.00 1016.28 1016.48 1016.64 1016.80 1016.96 1017.12 1017.32 1017.48 1017.72 1017.84 1017.96 1018.12 1018.24 1018.32 1018.44 1018.40 1018.44 1018.68 1018.80 1018.88 1018.96 1019.04 1019.04 1019.04 1019.08
1012.32 1012.44 1012.60 1012.88 1013.28 1013.52 1013.80 1013.92 1014.24 1014.44 1014.68 1014.84 1014.96 1015.16 1015.44 1015.68 1015.92 1016.08 1016.36 1016.52 1016.64 1016.84 1016.96 1017.20 1017.44 1017.64 1017.84 1017.92 1018.12 1018.28 1018.40 1018.40 1018.52 1018.24 1018.64 1018.80 1018.88 1018.84 1018.92 1018.92 1018.96 1018.84
1011.88 1012.16 1012.44 1012.88 1013.16 1013.44 1013.60 1013.60 1013.80 1014.04 1014.32 1014.56 1014.72 1014.96 1015.24 1015.36 1015.68 1015.84 1016.08 1016.32 1016.60 1016.76 1017.00 1017.12 1017.28 1017.52 1017.72 1017.84 1018.00 1018.20 1018.36 1018.44 1018.52 1018.20 1018.44 1018.72 1018.68 1018.80 1018.80 1018.60 1018.56 1018.68
1011.56 1011.72 1012.08 1012.40 1012.64 1013.00 1013.12 1013.40 1013.64 1013.84 1013.96 1014.40 1014.68 1014.76 1014.96 1015.16 1015.36 1015.72 1016.00 1016.24 1016.52 1016.76 1016.88 1017.08 1017.24 1017.36 1017.60 1017.76 1017.96 1018.16 1018.16 1018.28 1018.24 1018.20 1018.40 1018.52 1018.60 1018.64 1018.64 1018.56 1018.60 1018.64
1011.16 1011.44 1011.68 1011.96 1012.16 1012.40 1012.72 1013.16 1013.40 1013.60 1013.80 1014.00 1014.20 1014.44 1014.80 1015.16 1015.44 1015.64 1015.84 1016.16 1016.36 1016.64 1016.84 1017.04 1017.16 1017.32 1017.44 1017.64 1017.80 1018.08 1018.08 1018.20 1018.08 1018.20 1018.44 1018.60 1018.44 1018.44 1018.40 1018.44 1018.56 1018.68
1010.72 1011.00 1011.32 1011.60 1011.84 1012.20 1012.60 1012.88 1013.08 1013.32 1013.56 1013.88 1014.16 1014.20 1014.56 1014.92 1015.28 1015.48 1015.68 1015.92 1016.08 1016.36 1016.64 1016.84 1017.12 1017.28 1017.40 1017.56 1017.68 1017.84 1017.92 1017.96 1017.80 1018.04 1018.36 1018.48 1018.36 1018.12 1018.08 1018.16 1018.40 1018.64
1010.48 1010.76 1011.00 1011.20 1011.56 1011.76 1012.20 1012.48 1012.72 1012.96 1013.20 1013.40 1013.80 1014.16 1014.28 1014.68 1015.04 1015.36 1015.64 1015.84 1015.96 1016.24 1016.52 1016.84 1017.12 1017.28 1017.28 1017.40 1017.56 1017.68 1017.76 1017.92 1017.92 1018.04 1018.28 1018.28 1018.28 1018.28 1018.08 1018.16 1018.36 1018.52
1010.00 1010.12 1010.40 1010.72 1011.16 1011.44 1011.88 1012.24 1012.56 1012.80 1012.96 1013.28 1013.84 1014.08 1014.32 1014.68 1014.96 1015.24 1015.64 1015.96 1016.20 1016.40 1016.64 1016.88 1017.08 1017.24 1017.28 1017.36 1017.48 1017.60 1017.72 1017.72 1017.92 1018.04 1018.16 1018.24 1018.16 1018.28 1018.20 1018.12 1018.20 1018.32
1009.28 1009.68 1010.12 1010.60 1011.00 1011.24 1011.64 1012.00 1012.44 1012.64 1012.76 1013.24 1013.60 1013.80 1014.00 1014.16 1014.56 1015.04 1015.60 1016.12 1016.40 1016.52 1016.76 1017.04 1017.12 1017.24 1017.20 1017.32 1017.36 1017.48 1017.64 1017.68 1017.72 1017.84 1018.00 1018.08 1018.12 1018.12 1018.04 1017.96 1018.08 1018.08
1009.16 1009.44 1009.84 1010.20 1010.64 1011.00 1011.60 1012.16 1012.16 1012.40 1012.48 1012.88 1013.20 1013.40 1013.88 1014.00 1014.28 1014.68 1015.36 1015.68 1015.72 1015.84 1016.28 1016.84 1017.12 1017.16 1017.12 1017.12 1017.24 1017.32 1017.48 1017.60 1017.68 1017.72 1017.72 1017.76 1017.84 1017.80 1017.76 1017.80 1017.88 1017.88
1008.72 1009.00 1009.40 1009.68 1009.92 1010.08 1010.24 1010.20 1010.40 1010.96 1011.48 1012.12 1012.64 1013.12 1013.60 1014.12 1014.56 1014.72 1015.08 1015.36 1015.60 1015.48 1015.56 1016.24 1016.84 1017.00 1017.04 1017.00 1016.96 1017.04 1017.16 1017.32 1017.40 1017.48 1017.52 1017.56 1017.52 1017.52 1017.48 1017.56 1017.56 1017.56
1008.24 1008.60 1008.96 1009.12 1009.24 1009.32 1009.72 1010.16 1010.36 1010.56 1010.92 1011.56 1012.12 1012.84 1013.56 1014.12 1014.52 1014.44 1014.60 1014.96 1015.28 1015.48 1015.40 1015.64 1016.08 1016.44 1016.60 1016.60 1016.68 1016.76 1016.88 1017.00 1017.08 1017.16 1017.20 1017.24 1017.20 1017.16 1017.12 1017.12 1017.20 1017.12
1007.68 1008.00 1008.16 1008.52 1008.84 1009.12 1009.48 1009.84 1010.12 1010.44 1011.00 1011.64 1011.96 1012.44 1013.12 1013.48 1013.72 1014.00 1014.20 1014.48 1014.80 1015.08 1015.16 1015.28 1015.52 1015.84 1016.00 1016.12 1016.32 1016.48 1016.60 1016.76 1016.84 1016.84 1016.88 1016.88 1016.80 1016.72 1016.68 1016.60 1016.60 1016.64
1007.04 1007.24 1007.68 1008.12 1008.56 1008.88 1009.28 1009.92 1010.20 1010.52 1011.00 1011.32 1011.64 1012.00 1012.24 1012.44 1012.96 1013.40 1013.72 1014.08 1014.44 1014.80 1014.96 1015.08 1015.24 1015.44 1015.48 1015.56 1015.80 1016.08 1016.28 1016.40 1016.48 1016.60 1016.56 1016.48 1016.44 1016.32 1016.28 1016.20 1016.08 1016.08
1006.72 1007.16 1007.64 1008.00 1008.08 1008.36 1009.20 1010.08 1010.48 1010.60 1010.68 1010.88 1011.04 1011.28 1011.48 1011.80 1012.24 1012.92 1013.68 1014.08 1014.12 1014.44 1014.72 1014.88 1014.88 1014.92 1014.96 1015.04 1015.36 1015.64 1015.76 1015.96 1016.04 1016.16 1016.20 1016.28 1016.16 1016.00 1015.84 1015.84 1015.84 1015.72
1006.68 1007.04 1007.40 1007.68 1008.16 1009.08 1010.00 1010.60 1010.80 1010.72 1010.64 1010.60 1010.76 1010.88 1011.28 1011.64 1012.20 1012.76 1013.24 1013.68 1013.88 1014.00 1014.32 1014.48 1014.48 1014.20 1014.24 1014.60 1014.84 1015.04 1015.28 1015.44 1015.52 1015.64 1015.72 1015.80 1015.84 1015.80 1015.68 1015.56 1015.52 1015.48
1006.48 1006.84 1007.08 1007.60 1008.08 1008.84 1009.36 1008.96 1009.68 1010.32 1010.24 1010.24 1010.44 1010.64 1011.00 1011.48 1012.04 1012.56 1012.84 1013.24 1013.64 1013.64 1013.76 1013.84 1013.76 1013.60 1013.76 1014.24 1014.60 1014.84 1015.00 1015.12 1015.24 1015.32 1015.32 1015.40 1015.44 1015.48 1015.60 1015.48 1015.36 1015.32
1006.24 1006.60 1006.92 1007.40 1007.88 1008.36 1008.88 1009.00 1009.24 1009.68 1010.08 1010.20 1010.32 1010.64 1010.96 1011.28 1011.72 1012.12 1012.52 1012.92 1013.20 1013.20 1013.12 1013.04 1013.04 1013.00 1013.40 1013.88 1014.28 1014.64 1014.92 1014.92 1014.92 1015.00 1014.96 1014.92 1015.00 1015.08 1015.08 1015.20 1015.16 1015.40
1005.92 1006.32 1006.68 1007.08 1007.60 1007.92 1008.44 1008.72 1009.00 1009.20 1009.56 1009.88 1010.24 1010.40 1010.88 1011.32 1011.44 1011.76 1012.16 1012.48 1012.72 1012.88 1012.72 1012.40 1012.32 1012.44 1012.92 1013.48 1013.96 1014.36 1014.72 1014.96 1014.76 1014.64 1014.64 1014.60 1014.60 1014.68 1014.72 1014.88 1015.08 1015.24
1005.60 1006.04 1006.44 1006.80 1007.20 1007.56 1008.04 1008.52 1008.80 1008.88 1008.80 1009.04 1009.68 1010.32 1010.68 1011.04 1011.32 1011.64 1011.84 1012.08 1012.20 1012.40 1012.48 1012.20 1012.00 1012.04 1012.52 1013.00 1013.60 1014.04 1014.44 1014.80 1014.52 1014.40 1014.36 1014.36 1014.44 1014.44 1014.44 1014.56 1015.24 1016.04
1005.40 1005.76 1006.16 1006.40 1006.84 1007.24 1007.68 1008.12 1008.32 1008.48 1008.72 1009.00 1009.32 1009.80 1010.24 1010.68 1011.04 1011.56 1011.76 1011.80 1011.72 1011.92 1012.16 1012.12 1011.68 1011.76 1012.24 1012.68 1013.28 1013.80 1014.12 1014.48 1014.28 1014.24 1014.24 1014.24 1014.20 1014.16 1014.32 1014.56 1014.80 1015.12
1005.04 1005.48 1005.84 1006.08 1006.52 1006.96 1007.36 1007.76 1008.08 1008.32 1008.64 1008.88 1009.20 1009.56 1009.96 1010.32 1010.68 1010.96 1011.28 1011.40 1011.36 1011.48 1011.76 1011.84 1011.40 1011.64 1012.00 1012.44 1013.04 1013.52 1014.08 1014.32 1014.24 1014.36 1014.36 1014.36 1014.24 1014.20 1014.44 1014.48 1014.52 1014.68
1004.68 1005.12 1005.56 1005.88 1006.20 1006.76 1007.20 1007.48 1007.88 1008.24 1008.56 1008.76 1009.32 1009.72 1010.20 1010.52 1010.56 1010.72 1010.88 1011.00 1011.08 1011.20 1011.60 1011.72 1011.48 1011.52 1011.84 1012.24 1012.76 1013.36 1013.92 1013.88 1014.00 1014.08 1014.24 1014.36 1014.40 1014.44 1014.52 1014.52 1014.48 1014.64
1004.40 1004.80 1005.28 1005.64 1006.08 1006.64 1006.96 1007.16 1007.52 1007.88 1008.32 1008.52 1009.08 1009.60 1010.04 1010.20 1010.40 1010.76 1010.80 1010.84 1010.92 1011.08 1011.28 1011.52 1011.48 1011.48 1011.68 1012.00 1012.44 1013.00 1013.16 1013.32 1013.64 1014.08 1014.20 1014.28 1014.36 1014.36 1014.20 1014.24 1014.24 1014.20
1004.20 1004.60 1004.96 1005.36 1005.76 1006.04 1006.56 1006.96 1007.28 1007.64 1007.96 1008.44 1008.80 1009.24 1009.72 1010.00 1010.40 1010.68 1010.72 1010.72 1010.60 1010.68 1011.00 1011.16 1011.16 1011.24 1011.48 1011.80 1012.36 1012.88 1012.96 1012.96 1013.32 1013.64 1014.08 1014.20 1014.12 1014.08 1014.08 1014.20 1014.24 1014.20
1003.92 1004.36 1004.68 1005.08 1005.60 1005.88 1006.24 1006.52 1006.80 1007.12 1007.68 1008.32 1008.72 1008.96 1009.44 1009.72 1010.04 1010.24 1010.40 1010.40 1010.20 1010.20 1010.36 1010.56 1010.76 1010.96 1011.40 1011.88 1012.28 1012.56 1012.68 1012.80 1013.04 1013.52 1013.80 1013.92 1014.08 1014.12 1014.12 1013.96 1013.88 1013.80
Wind_Speed
12 11 12 11 11 10 9 9 9 8 8 8 8 8 8 7 8 8 8 7 8 7 7 7 6 5 5 5 5 5 4 5 5 4 4 4 4 4 4 4 4 4
14 13 11 10 10 10 9 10 9 8 8 8 7 7 7 8 9 9 8 8 8 8 8 8 7 6 6 6 6 6 5 5 6 4 4 5 5 5 6 6 6 5
14 13 13 12 10 12 11 9 9 9 8 8 8 8 8 9 9 9 8 8 8 8 8 8 8 7 7 6 6 6 6 6 6 5 5 5 5 5 5 6 6 6
15 14 12 12 11 11 11 9 9 8 8 8 9 8 8 8 9 10 9 9 8 8 8 8 8 8 7 7 6 5 5 5 5 5 5 4 5 5 6 5 6 6
15 13 12 11 11 11 10 10 11 9 9 9 9 10 9 9 9 10 9 9 8 9 8 9 8 7 7 7 6 5 5 5 6 5 5 6 5 6 6 6 6 7
13 13 12 12 12 11 11 11 11 10 10 10 10 9 9 10 10 10 10 10 10 9 9 9 9 8 7 7 6 6 6 6 5 6 6 7 7 6 6 6 6 7
14 14 14 12 12 13 12 11 10 10 10 9 10 10 10 11 11 10 10 10 9 9 9 8 7 7 7 7 7 7 6 6 6 6 6 6 6 7 7 6 7 8
15 14 14 13 14 13 12 11 10 10 10 10 11 10 10 10 11 10 9 9 8 8 8 8 7 7 7 7 7 7 7 6 7 8 8 7 7 7 7 6 7 8
16 14 13 13 14 13 14 12 10 10 10 11 10 10 11 11 11 11 9 8 7 6 6 6 6 7 7 8 8 8 8 8 7 7 8 8 8 8 8 7 8 8
14 13 15 15 15 12 11 9 11 11 12 12 12 11 11 11 11 11 11 12 12 11 9 8 7 8 8 9 8 8 8 8 8 8 8 8 8 8 9 8 9 9
16 15 15 16 16 15 18 20 18 16 14 15 14 13 12 10 8 9 9 9 9 10 10 8 8 9 9 9 8 8 8 8 8 9 9 9 9 9 9 10 10 10
17 16 16 18 18 18 18 17 16 15 15 14 14 14 11 9 10 9 9 9 8 9 9 10 9 10 10 10 10 9 8 8 9 10 10 10 10 10 10 10 10 10
17 17 16 16 16 14 14 15 15 15 14 13 13 14 13 13 12 11 9 8 8 9 10 10 11 12 11 10 9 9 9 9 10 10 10 10 10 11 11 11 11 10
16 16 15 13 12 12 12 12 13 13 13 13 14 14 16 16 14 11 8 9 10 9 9 9 9 10 10 10 9 9 9 10 10 10 11 11 11 11 11 11 11 11
13 11 10 11 14 14 13 12 10 11 12 12 13 14 13 15 13 12 10 9 9 10 10 9 10 11 9 9 9 10 10 11 11 11 11 11 12 12 12 11 11 11
11 11 12 13 13 11 14 11 6 7 8 10 12 13 11 11 12 12 12 12 11 11 10 10 10 9 10 13 10 9 10 10 9 10 11 11 12 12 12 11 11 11
12 12 13 14 14 13 16 16 10 6 10 11 12 12 12 12 12 13 13 12 12 12 13 12 11 9 13 14 14 13 10 10 10 9 10 11 11 11 11 10 9 10
12 13 13 13 13 15 16 16 14 13 11 11 11 12 11 12 13 13 13 12 12 13 13 12 11 11 13 14 14 14 12 10 10 10 10 10 10 10 9 9 9 7
13 14 13 12 13 15 14 16 16 15 14 13 13 13 12 13 13 13 12 11 11 11 12 12 11 12 14 14 14 14 14 11 9 10 11 10 10 9 9 8 7 8
13 13 13 12 13 14 14 16 16 17 18 16 13 12 13 13 12 12 11 11 11 11 11 11 11 11 14 15 14 14 13 11 10 10 10 10 10 10 9 8 3 3
12 13 13 13 13 15 14 16 18 17 16 14 13 14 15 14 12 11 10 10 10 11 11 11 10 11 13 14 13 13 13 11 8 7 7 8 8 9 8 5 4 4
12 13 13 13 15 15 15 15 16 16 16 13 10 9 8 8 8 9 9 10 10 10 10 11 9 12 13 12 12 13 10 6 6 6 6 6 7 6 4 5 5 5
13 13 14 13 14 16 15 14 14 14 13 10 10 9 9 8 9 7 6 8 9 8 9 9 9 9 13 13 12 12 9 6 5 5 5 6 6 4 4 4 4 4
12 13 13 14 13 14 14 13 13 11 13 10 12 11 11 10 9 9 10 9 10 8 8 11 11 8 13 13 14 14 11 6 5 5 6 5 5 5 4 2 4 8
12 12 12 12 13 14 14 14 13 12 11 10 11 10 9 7 7 8 10 11 10 11 11 13 12 8 12 13 12 13 10 7 6 6 6 5 5 4 3 3 4 6
11 12 12 12 12 12 12 12 12 12 12 12 11 10 10 9 9 11 13 13 13 13 12 12 13 8 10 13 14 15 14 7 6 6 6 5 4 4 5 5 6 5
Wind_Direction
204 205 209 211 213 217 218 209 210 210 213 219 219 221 216 196 182 184 188 191 194 199 192 197 199 201 204 207 205 213 214 210 224 205 216 229 237 248 251 254 256 256
202 204 206 208 209 211 216 210 206 201 201 203 204 196 184 179 181 185 191 194 195 198 193 195 199 203 206 206 203 212 214 213 219 204 220 224 240 248 248 253 264 267
201 203 202 201 204 207 207 198 197 197 197 195 193 187 182 180 183 187 190 195 195 198 196 200 199 199 205 211 205 213 215 217 222 221 218 231 245 252 263 265 260 253
201 202 201 199 200 199 198 196 194 193 192 188 189 189 187 185 185 185 187 193 196 200 198 201 204 200 202 206 206 216 221 224 229 236 237 235 239 251 255 257 262 270
199 199 197 196 198 198 196 196 197 188 192 188 187 186 187 184 186 188 188 188 196 198 200 203 204 208 202 204 204 218 223 228 227 231 237 239 239 241 250 254 257 260
195 192 189 192 192 192 195 197 196 188 188 186 189 187 184 181 187 193 190 191 191 198 198 202 203 207 206 206 209 216 229 237 233 227 232 240 247 248 248 248 252 254
192 194 192 191 191 191 195 196 189 183 185 185 183 190 187 184 190 194 194 196 193 193 201 200 205 210 207 210 213 217 224 240 252 245 238 240 241 247 249 250 253 261
189 193 191 191 193 192 195 192 184 178 180 178 186 187 184 187 190 189 191 198 200 197 201 209 210 216 217 215 220 221 228 232 237 238 241 243 246 246 248 253 260 263
194 189 189 192 193 192 196 192 183 180 175 179 188 184 182 192 187 186 177 182 201 192 200 211 214 220 221 225 225 225 231 236 240 242 241 242 238 241 248 255 258 259
186 191 194 193 193 189 186 196 199 186 181 185 189 189 185 192 187 178 174 183 182 177 181 193 209 221 223 225 226 229 231 234 240 246 247 243 246 251 252 251 255 257
191 192 193 195 196 191 187 193 198 189 181 184 186 193 188 175 170 170 179 178 188 186 176 183 210 222 226 228 228 229 231 235 238 241 244 245 248 251 253 258 260 258
190 192 196 199 199 198 194 197 203 198 182 177 181 185 174 171 176 184 186 183 183 180 183 187 200 216 221 226 230 229 227 233 238 240 243 246 248 249 252 252 253 252
191 196 197 198 199 195 187 199 203 196 176 171 176 178 171 183 186 182 179 173 180 186 190 191 195 210 217 217 224 230 229 232 239 240 242 246 247 250 254 253 252 249
193 194 194 188 184 187 185 186 192 185 170 168 173 178 182 184 180 175 170 178 184 187 196 201 204 212 211 211 216 221 226 233 236 241 245 246 248 250 253 255 252 249
192 190 178 170 178 183 177 173 176 167 163 166 172 181 186 184 176 171 170 185 184 188 196 204 207 211 214 209 211 216 228 236 237 241 246 250 253 253 252 252 254 254
179 175 170 171 174 147 103 111 160 174 172 176 177 179 175 171 172 174 183 191 191 187 194 203 211 213 201 198 206 222 227 234 240 244 249 251 253 254 254 253 253 254
176 180 173 174 173 151 149 165 148 165 186 184 180 181 175 169 172 181 191 194 196 192 195 204 209 211 186 187 199 212 226 239 246 247 250 251 249 251 254 254 258 262
178 182 182 177 172 173 167 173 162 183 196 195 187 181 174 173 181 189 193 196 200 205 203 205 210 198 181 188 198 206 214 232 243 249 252 252 252 251 253 254 253 268
181 184 188 181 173 177 169 177 181 184 187 194 193 183 176 185 192 192 194 197 204 207 213 212 215 185 183 190 199 205 209 218 240 249 252 254 256 257 258 257 249 252
179 183 188 185 174 179 175 179 187 192 195 195 185 181 186 193 196 198 196 199 204 212 219 222 220 184 179 189 198 202 206 205 238 241 247 253 258 265 265 267 1 8
177 181 188 188 189 180 180 184 191 198 198 193 186 186 189 194 195 192 198 204 205 211 221 224 225 186 176 183 192 198 203 206 232 236 245 248 250 253 255 247 216 200
177 181 186 186 196 194 188 186 191 195 196 194 184 175 179 182 186 199 205 211 211 213 227 232 231 172 175 177 184 197 186 206 224 231 243 253 253 251 244 266 255 231
179 182 184 186 192 202 195 189 190 195 198 193 187 187 187 192 198 203 222 231 227 217 227 241 243 175 171 175 185 177 167 209 206 219 236 246 253 264 281 289 311 318
180 183 184 189 186 202 202 193 191 191 202 188 186 188 195 198 201 211 219 229 231 232 234 241 244 179 166 170 182 169 180 190 192 208 218 208 228 256 254 222 240 251
180 183 188 190 196 208 210 203 189 188 196 195 191 192 196 190 199 215 225 229 227 224 226 232 237 179 162 167 169 163 178 190 180 200 196 227 226 218 234 265 264 261
179 183 187 188 189 198 206 207 213 212 204 203 195 188 196 197 200 211 218 222 225 225 221 222 229 181 163 160 168 172 181 180 180 180 202 197 183 213 256 258 253 254